Date,TemperatureHighF,TemperatureAvgF,TemperatureLowF,DewpointHighF,DewpointAvgF,DewpointLowF,HumidityHigh,HumidityAvg,HumidityLow,PressureMaxIn,PressureMinIn,WindSpeedMaxMPH,WindSpeedAvgMPH,GustSpeedMaxMPH,PrecipitationSumIn
2013-1-1,50.0,47.4,44.0,42.0,40.1,36.9,77,76,74,30.24,30.07,3,0,7,0.22
2013-1-2,49.0,44.4,40.0,41.1,36.6,32.0,76,74,73,30.36,30.05,0,0,4,0.30
2013-1-3,47.0,40.1,30.0,39.8,32.6,23.4,76,74,73,30.45,30.30,0,0,4,0.00
2013-1-4,50.0,37.3,27.0,43.1,30.4,20.1,77,76,75,30.50,30.31,3,0,6,0.00
2013-1-5,51.0,37.2,26.0,44.0,30.5,20.1,78,76,75,30.57,30.41,1,0,3,0.00
2013-1-6,53.0,42.8,35.0,46.0,35.6,27.9,77,76,74,30.42,30.18,0,0,3,0.00
2013-1-7,53.0,37.8,29.0,46.0,30.9,22.1,77,76,74,30.62,30.35,3,0,6,0.00
2013-1-8,54.0,40.2,28.0,47.3,33.1,21.4,78,76,73,30.63,30.48,0,0,0,0.00
2013-1-9,68.0,49.5,35.0,61.6,42.4,27.5,80,76,72,30.61,30.42,4,0,5,0.00
2013-1-10,66.0,52.5,45.0,59.6,45.3,37.9,80,77,73,30.66,30.52,3,0,6,0.00
2013-1-11,52.0,48.1,43.0,44.0,40.3,35.3,76,74,73,30.59,30.27,0,0,4,0.21
2013-1-12,70.0,58.1,51.0,63.5,50.3,42.6,80,75,73,30.28,30.17,0,0,0,0.00
2013-1-13,76.0,63.6,56.0,70.1,56.3,47.4,82,77,73,30.25,30.09,5,0,7,0.00
2013-1-14,69.0,63.9,59.0,62.6,56.9,51.8,80,78,74,30.24,30.16,2,0,7,0.00
2013-1-15,61.0,47.5,45.0,54.1,39.8,36.9,78,75,72,30.39,30.20,3,0,5,0.01
2013-1-16,52.0,47.5,45.0,43.7,39.5,36.5,76,74,72,30.22,30.10,0,0,4,0.15
2013-1-17,53.0,48.2,34.0,44.7,40.4,26.9,76,74,72,30.32,30.04,4,0,11,0.23
2013-1-18,47.0,37.4,28.0,39.8,30.3,21.4,77,75,72,30.73,30.32,3,0,6,0.07
2013-1-19,56.0,37.0,26.0,49.2,30.2,19.8,78,76,74,30.71,30.34,0,0,5,0.76
2013-1-20,67.0,49.3,34.0,60.6,42.4,26.9,80,77,75,30.34,30.06,4,0,9,0.08
2013-1-21,61.0,45.4,28.0,54.4,38.6,21.4,79,77,75,30.27,29.98,5,0,9,0.00
2013-1-22,42.0,33.8,23.0,34.6,27.1,17.5,79,76,75,30.50,30.11,6,0,9,0.00
2013-1-23,43.0,29.1,17.0,35.9,22.9,12.5,82,78,75,30.59,30.24,4,0,9,0.00
2013-1-24,38.0,32.0,22.0,30.8,25.5,16.5,79,77,75,30.73,30.13,10,0,13,0.00
2013-1-25,28.0,24.3,20.0,21.7,18.5,14.8,80,78,77,30.75,30.32,0,0,3,0.01
2013-1-26,38.0,30.4,26.0,30.8,23.6,19.8,77,76,74,30.60,30.29,0,0,0,0.01
2013-1-27,42.0,30.9,23.0,34.6,24.2,17.2,78,76,75,30.79,30.60,0,0,4,0.02
2013-1-28,53.0,42.4,29.0,46.0,35.4,22.4,77,76,73,30.70,30.34,3,0,10,0.02
2013-1-29,76.0,59.2,49.0,70.1,52.2,41.1,82,78,74,30.36,30.13,5,0,12,0.00
2013-1-30,72.0,67.1,58.0,65.5,60.0,50.5,80,78,75,30.18,29.46,14,1,20,0.02
2013-1-31,55.0,45.9,33.0,48.3,38.9,26.3,78,76,75,30.20,29.81,6,0,13,0.46
2013-2-1,44.0,36.2,25.0,36.9,29.3,19.1,78,76,75,30.60,30.04,8,0,21,0.00
2013-2-2,47.0,33.2,18.0,39.8,26.7,13.2,81,77,75,30.63,30.18,3,0,9,0.00
2013-2-3,54.0,42.4,34.0,47.3,35.3,27.2,78,76,74,30.18,29.96,3,0,9,0.00
2013-2-4,54.0,39.2,26.0,47.3,32.4,20.1,78,76,75,30.32,30.15,2,0,5,0.00
2013-2-5,66.0,48.3,39.0,59.6,41.3,31.7,80,77,75,30.17,29.94,2,0,6,0.00
2013-2-6,69.0,45.3,30.0,62.6,38.5,23.4,80,77,73,30.46,30.14,3,0,6,0.00
2013-2-7,51.0,42.8,36.0,44.0,35.7,28.8,77,76,73,30.51,30.15,3,0,6,0.30
2013-2-8,59.0,46.9,41.0,52.5,39.5,32.3,79,75,71,30.20,29.90,4,0,12,0.77
2013-2-9,60.0,40.5,28.0,53.5,33.8,21.7,79,77,75,30.56,30.19,5,0,9,0.00
2013-2-10,59.0,39.6,24.0,52.5,33.0,18.1,79,77,75,30.67,30.36,4,0,8,0.02
2013-2-11,64.0,55.3,44.0,57.3,48.0,36.9,79,77,74,30.36,30.00,4,0,10,0.05
2013-2-12,67.0,55.0,46.0,60.6,48.1,38.8,80,78,75,30.21,30.04,5,0,5,0.00
2013-2-13,49.0,46.8,43.0,42.1,39.2,35.9,77,75,72,30.09,29.76,1,0,6,0.31
2013-2-14,57.0,42.4,32.0,50.2,35.3,25.0,78,76,72,30.25,29.98,3,0,10,0.00
2013-2-15,69.0,45.6,29.0,62.6,38.8,22.1,80,77,72,30.28,30.01,4,0,8,0.00
2013-2-16,44.0,37.4,32.0,36.9,30.1,25.0,76,75,73,30.13,30.01,3,0,4,0.31
2013-2-17,43.0,31.2,23.0,35.9,24.7,17.5,79,76,75,30.50,30.10,5,0,12,0.10
2013-2-18,58.0,35.5,17.0,51.2,29.2,12.2,81,78,75,30.63,30.39,3,0,8,0.02
2013-2-19,54.0,43.6,33.0,47.3,36.4,26.3,78,76,73,30.43,29.98,4,0,14,0.06
2013-2-20,59.0,42.5,28.0,52.5,35.6,21.7,79,76,73,30.32,30.10,2,0,9,0.00
2013-2-21,61.0,42.1,24.0,54.4,35.4,18.1,79,77,75,30.43,30.20,2,0,7,0.00
2013-2-22,42.0,36.9,32.0,34.6,29.7,25.3,77,75,73,30.53,30.31,3,0,6,0.36
2013-2-23,44.0,40.8,37.0,36.6,32.5,29.1,75,72,71,30.31,29.94,0,0,3,0.35
2013-2-24,71.0,52.0,39.0,64.9,44.8,31.7,81,76,71,30.21,29.93,4,0,11,0.14
2013-2-25,45.0,38.5,33.0,37.9,31.5,26.3,76,76,75,30.39,30.21,4,0,6,0.03
2013-2-26,58.0,45.8,35.0,50.5,38.2,28.2,77,75,72,30.32,29.67,8,0,10,0.03
2013-2-27,68.0,53.1,43.0,61.6,46.0,34.6,80,77,72,29.91,29.75,8,0,12,0.02
2013-2-28,52.0,43.5,33.0,45.0,36.3,26.3,77,76,73,30.04,29.86,4,0,7,0.01
2013-3-1,59.0,41.5,29.0,52.5,34.7,22.7,79,77,75,30.08,29.96,5,0,6,0.01
2013-3-2,56.0,41.5,30.0,49.2,34.6,23.7,78,76,75,30.10,29.92,5,0,6,0.01
2013-3-3,55.0,39.0,28.0,48.3,32.3,21.7,78,77,75,30.16,29.94,6,0,8,0.32
2013-3-4,59.0,39.3,26.0,52.5,32.6,20.1,79,77,75,30.29,30.10,6,0,8,0.00
2013-3-5,53.0,42.4,32.0,46.0,35.2,25.6,77,75,73,30.26,29.74,6,0,10,0.26
2013-3-6,47.0,42.7,37.0,39.8,35.2,29.5,76,75,72,30.18,29.66,9,0,23,0.16
2013-3-7,56.0,43.6,31.0,49.2,36.7,24.6,78,76,75,30.40,30.18,2,0,8,0.00
2013-3-8,63.0,44.8,29.0,56.4,38.1,22.7,79,77,75,30.44,30.22,5,0,12,0.00
2013-3-9,71.0,49.0,31.0,64.9,42.3,24.6,81,77,75,30.50,30.29,2,0,5,0.00
2013-3-10,74.0,50.7,0.0,67.8,43.9,-78.6,81,78,1,30.50,30.26,4,0,8,0.00
2013-3-11,74.0,56.7,40.0,67.8,50.0,32.7,81,78,75,30.38,30.04,6,0,9,0.00
2013-3-12,76.0,62.9,51.0,70.1,55.8,44.0,82,78,74,30.08,29.80,6,0,9,0.41
2013-3-13,64.0,49.8,34.0,57.7,42.9,27.2,80,77,75,30.28,30.02,8,0,11,0.00
2013-3-14,62.0,43.3,28.0,55.4,36.5,21.7,79,77,75,30.42,30.19,4,0,11,0.00
2013-3-15,68.0,47.6,27.0,61.6,41.0,20.8,80,78,75,30.37,30.01,7,0,13,0.00
2013-3-16,81.0,64.4,52.0,75.0,57.9,45.0,82,79,77,30.01,29.69,8,0,13,0.00
2013-3-17,63.0,53.2,42.0,56.4,46.3,34.6,79,77,75,30.34,29.92,5,0,7,0.00
2013-3-18,45.0,41.7,39.0,37.2,33.9,30.7,75,74,72,30.36,29.99,0,0,7,0.14
2013-3-19,75.0,54.7,42.0,68.7,47.3,33.3,81,76,71,30.15,29.88,7,0,9,0.15
2013-3-20,62.0,48.2,37.0,55.4,41.2,30.1,79,77,75,30.26,29.96,2,0,8,0.00
2013-3-21,52.0,41.7,33.0,45.0,34.6,26.3,77,76,75,30.16,29.88,5,0,10,0.00
2013-3-22,59.0,40.6,24.0,52.5,34.0,18.1,79,77,75,30.28,30.06,4,0,7,0.00
2013-3-23,59.0,44.8,35.0,52.5,37.8,28.2,79,76,75,30.21,30.02,0,0,3,0.00
2013-3-24,41.0,38.5,34.0,33.7,31.1,27.2,76,74,73,30.11,29.72,3,0,9,0.72
2013-3-25,56.0,42.2,37.0,49.2,34.9,29.1,78,75,72,29.96,29.69,6,0,11,0.07
2013-3-26,55.0,44.4,34.0,48.3,37.4,27.2,78,76,75,30.26,29.96,3,0,6,0.00
2013-3-27,58.0,44.3,32.0,51.2,37.4,25.6,78,77,75,30.40,30.22,7,0,12,0.00
2013-3-28,64.0,45.2,29.0,57.7,38.6,22.7,80,77,75,30.45,30.22,6,0,7,0.00
2013-3-29,68.0,47.1,28.0,61.6,40.5,21.7,80,78,75,30.52,30.24,3,0,6,0.00
2013-3-30,76.0,54.2,38.0,70.1,47.4,30.8,82,78,75,30.40,30.14,3,0,8,0.00
2013-3-31,70.0,57.3,49.0,63.9,50.3,41.4,81,77,73,30.23,29.87,5,0,9,0.57
2013-4-1,79.0,63.3,54.0,73.0,56.2,45.9,82,78,73,30.09,29.84,4,0,14,0.03
2013-4-2,69.0,52.1,36.0,62.6,45.2,29.2,80,77,75,30.32,30.09,5,0,8,0.00
2013-4-3,68.0,51.5,40.0,61.6,44.5,32.7,80,77,75,30.44,30.26,3,0,7,0.00
2013-4-4,52.0,43.9,40.0,45.0,36.6,32.7,77,75,73,30.53,30.09,3,0,7,0.59
2013-4-5,69.0,50.1,41.0,62.6,42.5,32.3,80,75,71,30.16,29.95,4,0,5,0.27
2013-4-6,73.0,54.9,41.0,66.8,48.1,33.3,81,78,74,30.41,30.16,7,0,10,0.00
2013-4-7,79.0,57.8,36.0,73.0,51.2,29.2,82,79,75,30.46,30.15,7,0,9,0.00
2013-4-8,84.0,68.0,55.0,78.3,61.6,47.9,83,80,77,30.29,30.07,7,0,11,0.00
2013-4-9,91.0,73.7,59.0,85.1,67.5,51.8,83,81,77,30.27,30.05,6,0,10,0.00
2013-4-10,95.0,76.4,63.0,89.4,70.2,56.4,84,81,79,30.18,29.95,9,0,10,0.00
2013-4-11,86.0,73.4,63.0,80.2,67.2,56.4,83,81,79,30.08,29.84,6,0,10,0.00
2013-4-12,85.0,73.0,66.0,79.2,66.4,57.4,83,80,74,29.89,29.64,10,0,12,0.19
2013-4-13,82.0,66.2,52.0,75.9,59.8,45.0,82,80,77,30.12,29.84,3,0,6,0.00
2013-4-14,90.0,66.7,45.0,84.1,60.2,37.5,83,80,74,30.24,30.03,2,0,9,0.00
2013-4-15,77.0,66.8,59.0,71.1,60.4,52.1,82,80,78,30.30,30.13,6,0,9,0.00
2013-4-16,83.0,66.0,57.0,76.9,59.0,49.1,82,78,74,30.40,30.24,4,0,6,0.00
2013-4-17,90.0,70.3,57.0,84.1,63.4,48.8,83,79,74,30.34,30.13,0,0,7,0.00
2013-4-18,83.0,70.4,61.0,76.9,64.0,53.7,82,80,77,30.29,30.10,2,0,8,0.00
2013-4-19,84.0,71.7,66.0,78.3,64.6,57.4,83,78,74,30.14,29.75,6,0,11,0.71
2013-4-20,72.0,58.4,46.0,65.8,51.4,38.8,81,78,74,30.42,29.90,4,0,6,0.07
2013-4-21,68.0,53.6,41.0,61.6,46.7,33.3,80,77,74,30.61,30.42,6,0,8,0.00
2013-4-22,68.0,52.1,38.0,61.6,45.2,30.8,80,77,75,30.64,30.36,4,0,8,0.00
2013-4-23,75.0,56.9,49.0,68.7,50.1,41.8,81,78,76,30.41,30.19,0,0,5,0.03
2013-4-24,84.0,64.4,46.0,78.3,57.6,38.2,83,79,74,30.28,30.02,7,0,10,0.00
2013-4-25,79.0,65.2,50.0,73.0,58.7,43.1,82,80,77,30.41,30.09,0,0,5,0.00
2013-4-26,82.0,61.7,48.0,75.9,55.0,40.4,82,78,74,30.52,30.37,3,0,5,0.00
2013-4-27,81.0,65.4,51.0,75.0,59.0,44.0,82,80,77,30.50,30.33,0,0,4,0.00
2013-4-28,63.0,59.3,55.0,56.4,52.5,46.8,79,78,74,30.38,30.22,0,0,0,0.31
2013-4-29,73.0,62.8,55.0,66.4,55.2,46.8,80,76,73,30.24,30.03,0,0,2,0.61
2013-4-30,69.0,62.4,57.0,62.6,54.9,49.5,80,77,74,30.28,30.11,0,0,3,0.06
2013-5-1,63.0,60.1,57.0,56.0,52.7,49.1,78,77,74,30.43,30.26,2,0,6,0.03
2013-5-2,65.0,60.4,54.0,58.3,53.4,46.9,79,78,76,30.44,30.35,1,0,5,0.03
2013-5-3,75.0,59.6,50.0,68.7,52.7,42.0,81,78,73,30.40,30.22,4,0,9,0.02
2013-5-4,68.0,57.8,51.0,61.6,51.0,44.0,80,78,77,30.36,30.17,4,0,6,0.02
2013-5-5,62.0,56.8,51.0,55.4,49.9,44.0,79,78,77,30.22,30.10,6,0,7,0.02
2013-5-6,67.0,61.3,57.0,59.5,53.4,48.8,78,75,74,30.12,29.92,3,0,8,0.01
2013-5-7,76.0,62.1,53.0,70.1,54.8,44.6,82,77,73,30.08,29.93,3,0,6,0.02
2013-5-8,79.0,63.8,53.0,73.0,56.7,45.3,82,78,73,30.11,29.99,1,0,5,0.01
2013-5-9,89.0,69.6,56.0,83.1,62.8,48.5,83,79,74,30.16,30.02,0,0,7,0.03
2013-5-10,92.0,73.2,57.0,86.4,66.7,49.1,84,80,74,30.18,29.98,4,0,6,0.04
2013-5-11,88.0,74.5,67.0,82.2,68.1,59.2,83,80,76,30.04,29.81,2,0,8,0.04
2013-5-12,80.0,68.8,54.0,74.0,62.1,47.3,82,79,74,30.16,29.88,4,0,7,0.03
2013-5-13,74.0,58.6,46.0,67.8,51.9,38.8,81,78,75,30.31,30.12,1,0,6,0.01
2013-5-14,80.0,59.6,41.0,74.0,53.0,33.3,82,79,74,30.41,30.17,2,0,10,0.00
2013-5-15,94.0,71.2,53.0,88.4,65.0,46.0,84,81,77,30.21,29.91,3,0,8,0.01
2013-5-16,90.0,76.9,65.0,84.1,70.7,58.3,83,81,79,30.06,29.93,3,0,6,0.00
2013-5-17,97.0,77.0,62.0,91.3,70.7,54.7,84,81,74,30.16,30.02,0,0,3,0.01
2013-5-18,83.0,71.5,64.0,76.9,64.9,56.3,82,80,74,30.24,30.14,0,0,4,0.13
2013-5-19,82.0,71.2,66.0,75.9,63.8,57.4,82,78,74,30.23,30.10,0,0,5,0.13
2013-5-20,78.0,72.0,68.0,71.7,64.0,59.8,81,76,73,30.19,30.09,0,0,5,0.02
2013-5-21,95.0,77.8,71.0,89.4,70.5,61.9,84,78,73,30.12,29.96,2,0,5,0.00
2013-5-22,92.0,78.4,72.0,86.4,71.8,64.7,84,80,78,30.09,29.94,1,0,8,0.00
2013-5-23,93.0,76.8,72.0,87.4,69.3,63.2,84,78,73,30.04,29.86,0,0,4,0.01
2013-5-24,80.0,69.7,57.0,74.0,62.5,50.2,82,78,73,30.31,29.90,6,0,11,0.00
2013-5-25,84.0,64.7,49.0,78.3,58.2,41.8,83,79,76,30.39,30.18,4,0,8,0.00
2013-5-26,85.0,66.7,53.0,79.2,60.3,46.0,83,80,77,30.40,30.20,0,0,6,0.00
2013-5-27,91.0,70.7,55.0,85.1,64.3,47.6,83,80,76,30.41,30.19,2,0,8,0.00
2013-5-28,92.0,76.6,63.0,86.4,70.5,56.0,84,81,78,30.34,30.17,2,0,6,0.00
2013-5-29,94.0,79.1,66.0,88.4,73.0,58.9,84,82,77,30.33,30.18,4,0,6,0.00
2013-5-30,97.0,79.7,67.0,91.3,73.5,59.5,84,81,76,30.36,30.18,3,0,6,0.00
2013-5-31,97.0,81.6,70.0,91.3,75.4,62.8,84,82,77,30.31,30.12,2,0,6,0.00
2013-6-4,87.0,77.1,69.0,81.2,70.9,61.8,83,81,78,30.20,30.08,0,0,4,0.00
2013-6-5,92.0,77.4,66.0,86.4,71.0,58.6,84,81,76,30.24,30.05,3,0,5,0.00
2013-6-6,79.0,74.3,70.0,72.6,67.5,63.5,81,80,73,30.13,29.90,4,0,8,0.57
2013-6-7,82.0,76.5,73.0,75.2,68.6,63.8,80,77,73,29.93,29.54,3,0,10,0.80
2013-6-8,89.0,76.5,69.0,83.1,69.4,60.0,83,79,72,30.17,29.89,0,0,6,0.25
2013-6-9,93.0,76.8,67.0,87.4,69.9,57.6,84,79,72,30.23,30.06,0,0,4,0.05
2013-6-10,87.0,75.7,72.0,81.2,68.2,62.8,83,78,71,30.18,29.92,4,0,8,0.03
2013-6-11,93.0,78.6,71.0,87.4,72.0,62.6,84,80,74,30.02,29.91,3,0,8,0.02
2013-6-12,96.0,79.5,65.0,90.3,73.0,57.4,84,81,72,30.06,29.87,5,0,6,0.02
2013-6-13,101.0,81.4,69.0,95.6,74.7,61.1,85,80,71,29.92,29.58,6,0,10,0.02
2013-6-14,86.0,72.3,62.0,80.2,65.8,54.3,83,80,76,30.12,29.81,1,0,8,0.02
2013-6-15,92.0,73.0,59.0,86.4,66.5,51.4,84,80,72,30.22,30.06,4,0,6,0.01
2013-6-16,92.0,77.5,66.0,86.4,71.3,59.3,84,81,78,30.21,30.02,6,0,8,0.01
2013-6-17,92.0,79.2,72.0,86.4,73.0,65.5,84,81,80,30.10,29.95,4,0,6,0.02
2013-6-18,87.0,76.0,70.0,81.2,69.1,61.5,83,79,72,30.03,29.77,5,0,6,0.01
2013-6-19,86.0,74.7,66.0,80.2,67.2,56.7,83,78,72,30.20,29.94,0,0,5,0.00
2013-6-20,91.0,75.3,64.0,85.1,68.8,56.6,83,80,76,30.34,30.21,4,0,5,0.01
2013-6-21,91.0,72.4,58.0,85.1,66.0,50.5,83,80,76,30.37,30.22,0,0,5,0.00
2013-6-22,85.0,74.3,70.0,79.2,67.6,62.4,83,80,77,30.29,30.18,3,0,6,0.06
2013-6-23,92.0,77.0,68.0,86.4,69.9,59.0,84,79,72,30.28,30.14,0,0,4,0.01
2013-6-24,92.0,81.6,72.0,86.4,75.2,64.7,84,81,78,30.26,30.12,2,0,5,0.00
2013-6-25,95.0,79.0,71.0,89.4,72.5,63.4,84,81,77,30.20,30.02,2,0,6,0.00
2013-6-26,99.0,80.6,70.0,93.3,74.1,62.4,84,81,77,30.10,29.89,0,0,7,0.09
2013-6-27,96.0,80.0,69.0,90.7,72.9,59.6,85,79,72,30.00,29.73,5,0,7,0.00
2013-6-28,98.0,82.7,72.0,92.3,76.1,62.8,84,81,73,29.81,29.58,5,0,11,0.48
2013-6-29,93.0,80.9,71.0,87.4,74.3,61.1,84,80,71,29.80,29.66,0,0,4,0.94
2013-6-30,91.0,78.7,72.0,85.1,71.9,62.0,83,80,71,29.94,29.78,0,0,4,0.20
2013-7-1,86.0,78.2,72.0,80.2,70.5,61.6,83,78,70,30.06,29.92,3,0,6,0.47
2013-7-2,80.0,76.0,74.0,73.6,67.4,64.0,81,75,70,30.26,30.06,2,0,6,0.04
2013-7-3,91.0,78.7,74.0,85.1,70.2,63.6,83,75,70,30.32,30.21,4,0,6,0.02
2013-7-4,96.0,80.9,74.0,90.3,72.9,63.6,85,77,70,30.34,30.19,6,0,7,0.02
2013-7-5,96.0,82.4,73.0,90.3,75.5,63.6,85,80,70,30.34,30.18,3,0,6,0.01
2013-7-6,95.0,80.9,74.0,89.4,74.2,65.7,84,80,73,30.31,30.15,0,0,5,0.01
2013-7-7,95.0,81.2,71.0,89.4,74.8,63.4,84,81,76,30.26,30.08,2,0,5,0.02
2013-7-8,96.0,81.6,73.0,90.3,74.9,64.6,84,80,75,30.23,30.09,0,0,6,0.01
2013-7-9,93.0,79.4,72.0,87.4,71.3,62.0,84,76,70,30.23,30.10,0,0,5,0.00
2013-7-10,86.0,80.9,77.0,80.2,74.6,70.7,83,81,81,30.06,29.98,0,0,6,0.00
2013-7-11,88.0,77.6,74.0,82.2,70.3,63.6,83,78,70,30.05,29.94,0,0,6,0.01
2013-7-12,78.0,75.0,73.0,71.7,66.5,62.2,81,75,69,30.10,29.95,0,0,5,0.01
2013-7-13,82.0,76.0,72.0,75.6,67.1,61.2,81,74,68,30.24,30.08,0,0,6,0.01
2013-7-14,94.0,81.3,72.0,88.4,73.5,61.2,84,77,68,30.34,30.24,0,0,5,0.01
2013-7-15,100.0,80.6,70.0,95.0,73.4,60.5,86,79,68,30.37,30.25,0,0,0,0.00
2013-7-16,102.0,82.7,70.0,97.0,75.6,59.7,86,79,70,30.32,30.17,0,0,3,0.01
2013-7-17,101.0,85.2,75.0,96.0,78.2,64.1,86,80,69,30.25,30.10,0,0,0,0.01
2013-7-18,99.0,84.5,75.0,93.3,77.3,64.5,85,79,70,30.19,30.04,0,0,3,0.00
2013-7-19,96.0,83.6,75.0,90.3,76.1,64.1,84,79,69,30.13,29.99,4,0,7,0.00
2013-7-20,95.0,82.4,76.0,88.4,76.0,69.0,84,81,79,30.06,29.92,1,0,7,0.00
2013-7-21,97.0,80.4,75.0,91.3,73.2,64.5,84,79,70,30.04,29.89,0,0,5,0.39
2013-7-22,94.0,80.6,73.0,88.4,72.7,63.0,84,77,70,30.01,29.85,0,0,6,0.00
2013-7-23,96.0,83.0,76.0,90.3,76.6,68.6,84,81,78,29.90,29.73,4,0,8,0.00
2013-7-24,99.0,82.9,72.0,93.7,76.2,63.0,85,80,71,29.91,29.73,0,0,4,0.00
2013-7-25,83.0,75.7,69.0,76.9,68.6,61.1,82,79,70,30.10,29.87,3,0,6,0.02
2013-7-26,93.0,75.7,65.0,87.4,68.3,55.3,84,78,70,30.16,30.06,0,0,0,0.00
2013-7-27,92.0,76.8,68.0,86.4,69.8,59.0,84,79,71,30.13,29.97,0,0,5,0.12
2013-7-28,95.0,79.4,71.0,89.4,72.2,60.7,84,79,70,30.07,29.92,0,0,7,0.00
2013-7-29,94.0,79.1,71.0,88.4,72.4,61.1,84,80,70,30.22,30.06,0,0,6,0.04
2013-7-30,96.0,78.9,65.0,90.3,72.5,56.9,84,81,74,30.32,30.14,0,0,5,0.00
2013-7-31,86.0,76.9,73.0,80.2,69.5,63.0,83,78,70,30.22,30.08,0,0,7,0.15
2013-8-1,89.0,76.8,72.0,83.1,68.9,61.6,83,77,69,30.10,29.90,0,0,6,0.18
2013-8-2,97.0,79.6,69.0,90.3,72.5,58.8,84,79,69,30.09,29.97,0,0,2,0.05
2013-8-3,95.0,79.7,73.0,89.4,72.2,62.6,84,78,69,30.09,29.92,2,0,4,0.18
2013-8-4,90.0,77.2,68.0,84.1,69.4,60.9,83,77,70,30.12,29.96,0,0,6,0.00
2013-8-5,90.0,75.8,65.0,84.1,68.8,56.3,83,79,70,30.18,30.04,0,0,4,0.00
2013-8-6,87.0,76.9,70.0,81.2,70.3,62.1,83,80,76,30.15,30.06,0,0,3,0.09
2013-8-7,94.0,79.7,70.0,88.4,72.5,60.9,84,79,70,30.17,30.04,4,0,7,0.00
2013-8-8,95.0,81.4,72.0,89.4,74.9,64.0,84,81,72,30.14,30.01,0,0,3,0.00
2013-8-9,96.0,83.9,75.0,90.3,77.3,66.5,84,81,75,30.10,29.98,3,0,8,0.00
2013-8-10,100.0,83.4,75.0,94.6,76.3,64.1,85,79,69,30.16,29.99,3,0,11,0.68
2013-8-11,100.0,82.6,73.0,94.6,74.8,62.6,85,77,70,30.18,30.00,0,0,0,0.01
2013-8-12,92.0,77.4,74.0,86.4,68.4,63.6,84,74,70,30.10,30.04,0,0,1,0.00
2013-8-14,79.0,71.5,63.0,73.0,64.9,55.7,82,80,77,30.20,30.05,0,0,5,0.04
2013-8-15,85.0,68.2,61.0,79.2,61.2,53.0,83,78,75,30.26,30.13,0,0,3,0.01
2013-8-16,74.0,67.5,61.0,67.8,60.2,53.0,81,78,74,30.28,30.19,0,0,0,0.01
2013-8-17,74.0,69.3,65.0,65.7,61.0,57.2,78,75,69,30.27,30.18,0,0,4,0.04
2013-8-18,89.0,76.1,70.0,83.1,68.1,61.1,83,76,71,30.29,30.17,4,0,10,0.04
2013-8-19,78.0,72.1,69.0,71.7,64.0,58.8,81,76,70,30.28,30.15,0,0,0,0.02
2013-8-20,91.0,78.0,71.0,85.1,70.0,60.7,83,76,70,30.23,30.14,0,0,0,0.01
2013-8-21,94.0,79.1,73.0,88.4,70.4,62.2,84,75,68,30.27,30.15,0,0,5,0.02
2013-8-22,98.0,81.8,72.0,92.3,74.0,61.6,84,77,70,30.22,30.00,0,0,4,0.00
2013-8-23,95.0,80.6,72.0,89.4,73.2,61.6,84,78,68,30.14,29.93,0,0,7,0.01
2013-8-24,92.0,77.6,68.0,86.4,71.0,60.1,84,80,76,30.40,30.14,0,0,9,0.01
2013-8-25,89.0,73.6,64.0,83.1,66.6,56.6,83,79,70,30.48,30.32,0,0,5,0.00
2013-8-26,94.0,73.3,59.0,88.4,66.4,51.4,84,79,70,30.44,30.15,0,0,0,0.01
2013-8-27,97.0,77.8,65.0,91.3,71.0,57.2,84,80,76,30.22,29.96,0,0,3,0.00
2013-8-28,86.0,78.5,72.0,79.8,70.5,61.6,82,77,70,30.06,29.92,0,0,2,0.00
2013-8-29,95.0,82.5,75.0,89.4,75.9,67.3,84,81,77,30.09,29.89,4,0,8,0.00
2013-8-30,97.0,79.6,70.0,91.3,72.3,59.7,84,78,70,30.15,29.95,0,0,1,0.00
2013-8-31,97.0,80.4,70.0,91.3,73.3,60.1,84,79,70,30.05,29.87,1,0,6,0.00
2013-9-1,95.0,80.2,74.0,89.4,72.9,64.5,84,79,70,29.96,29.80,6,0,7,1.53
2013-9-2,96.0,81.4,73.0,90.3,74.2,63.0,84,79,71,29.94,29.80,0,0,4,0.27
2013-9-3,94.0,80.9,74.0,88.8,73.9,63.7,85,79,68,30.01,29.81,0,0,13,0.03
2013-9-4,94.0,79.8,72.0,88.4,72.7,61.6,84,79,69,30.16,30.01,1,0,4,0.01
2013-9-5,98.0,79.3,69.0,92.3,72.4,59.2,85,80,70,30.18,30.02,0,0,6,0.00
2013-9-6,92.0,75.8,66.0,86.4,69.2,58.6,84,80,76,30.26,30.11,0,0,5,0.01
2013-9-7,92.0,75.0,63.0,86.4,68.2,55.3,84,80,71,30.25,30.01,0,0,3,0.00
2013-9-8,97.0,78.2,67.0,91.3,71.4,58.2,84,80,70,30.08,29.90,0,0,0,0.01
2013-9-9,95.0,79.1,69.0,89.7,72.0,58.8,85,79,69,30.23,30.07,0,0,5,0.00
2013-9-10,100.0,81.3,70.0,95.0,74.2,60.7,86,79,70,30.30,30.13,0,0,2,0.00
2013-9-11,97.0,79.7,70.0,91.3,72.6,61.6,85,79,69,30.30,30.12,0,0,4,0.00
2013-9-12,97.0,81.0,73.0,91.3,73.7,63.6,84,79,69,30.16,29.84,2,0,4,0.08
2013-9-13,91.0,77.3,72.0,85.1,68.2,61.6,83,74,70,29.88,29.80,0,0,6,0.00
2013-9-14,87.0,75.4,62.0,81.2,69.2,54.7,83,81,77,30.26,30.05,3,0,7,0.00
2013-9-15,91.0,70.5,58.0,85.1,63.6,49.7,83,79,72,30.34,30.17,0,0,2,0.00
2013-9-16,94.0,77.3,67.0,88.8,70.1,59.2,85,79,70,30.28,30.04,3,0,5,0.02
2013-9-17,86.0,72.1,63.0,80.2,65.6,55.3,83,80,76,30.42,30.27,2,0,7,0.00
2013-9-18,82.0,66.5,57.0,75.9,59.6,48.8,82,79,74,30.43,30.25,0,0,4,0.00
2013-9-19,86.0,69.7,59.0,80.2,62.4,51.1,83,78,70,30.32,30.15,0,0,0,0.00
2013-9-20,74.0,68.6,67.0,67.4,60.7,58.0,80,76,71,30.20,30.13,0,0,4,0.14
2013-9-21,80.0,76.5,73.0,73.6,68.7,62.2,81,77,68,29.96,29.80,0,0,7,0.25
2013-9-22,87.0,73.2,64.0,81.2,65.3,56.6,83,76,69,30.01,29.80,4,0,10,0.40
2013-9-23,81.0,67.7,59.0,75.0,60.7,51.1,82,78,75,30.20,30.01,0,0,6,0.03
2013-9-24,87.0,68.6,58.0,81.2,61.3,49.7,83,78,69,30.22,30.00,0,0,0,0.01
2013-9-25,83.0,68.1,58.0,76.9,60.8,49.7,82,78,70,30.08,29.94,0,0,0,0.00
2013-9-26,84.0,69.6,61.0,78.3,62.4,53.0,83,78,68,30.15,29.97,0,0,7,0.00
2013-9-27,80.0,67.3,59.0,74.0,60.1,50.3,82,78,69,30.31,30.15,0,0,5,0.00
2013-9-28,81.0,66.8,58.0,75.0,59.5,48.8,82,77,69,30.36,30.21,0,0,8,0.00
2013-9-29,84.0,67.8,58.0,78.3,60.6,49.6,83,78,69,30.29,30.06,3,0,5,0.00
2013-9-30,85.0,66.8,58.0,79.2,59.5,49.7,83,77,69,30.22,30.04,3,0,5,0.00
2013-10-1,91.0,70.1,57.0,85.1,63.0,48.8,83,78,69,30.26,30.03,0,0,4,0.00
2013-10-2,93.0,73.6,62.0,87.4,66.5,54.0,84,79,68,30.23,30.04,0,0,4,0.00
2013-10-3,94.0,74.6,63.0,88.4,67.5,54.0,84,79,69,30.23,30.06,0,0,4,0.00
2013-10-4,94.0,76.1,66.0,88.4,69.2,57.6,84,79,72,30.23,30.06,4,0,4,0.00
2013-10-5,97.0,76.6,65.0,91.3,69.2,54.9,85,78,68,30.22,30.02,0,0,2,0.00
2013-10-6,90.0,76.8,67.0,84.1,69.7,58.8,83,79,69,30.16,29.97,0,0,7,0.00
2013-10-7,79.0,74.7,69.0,70.0,64.9,58.4,78,72,68,30.08,29.93,3,0,9,0.24
2013-10-8,69.0,66.0,63.0,61.6,59.1,56.0,80,79,69,30.31,30.08,3,0,8,0.00
2013-10-9,68.0,64.6,62.0,61.6,57.3,52.1,80,78,70,30.29,30.20,3,0,7,0.12
2013-10-10,69.0,64.5,61.0,59.2,54.6,51.1,72,70,68,30.20,30.04,3,0,6,0.09
2013-10-11,77.0,72.3,68.0,70.7,63.4,57.8,81,74,68,30.07,30.00,0,0,4,0.02
2013-10-12,80.0,75.9,72.0,73.6,66.8,61.2,81,74,69,30.15,30.06,0,0,1,0.00
2013-10-13,83.0,79.6,77.0,76.2,70.5,66.0,81,74,69,30.26,30.14,1,0,5,0.09
2013-10-14,83.0,80.3,77.0,76.5,71.9,69.3,81,76,70,30.34,30.22,2,0,7,0.08
2013-10-15,77.0,66.0,54.0,69.6,58.4,44.4,83,77,70,30.32,30.12,0,0,6,0.14
2013-10-16,68.0,63.5,60.0,62.3,56.3,51.7,82,78,69,30.16,30.04,0,0,0,0.00
2013-10-17,74.0,65.3,59.0,68.8,57.9,48.8,84,77,69,30.08,29.91,0,0,6,0.00
2013-10-18,67.0,61.5,57.0,61.6,55.4,50.9,83,80,76,30.15,29.96,0,0,4,0.00
2013-10-19,67.0,61.8,59.0,61.3,54.9,50.9,82,78,72,30.09,29.89,0,0,0,0.00
2013-10-20,70.0,57.5,49.0,64.6,50.7,42.4,83,78,70,30.28,30.01,3,0,6,0.01
2013-10-21,71.0,55.1,46.0,65.6,48.6,39.2,83,79,70,30.34,30.08,0,0,4,0.00
2013-10-22,63.0,57.3,53.0,57.1,50.0,43.8,81,77,69,30.15,29.93,0,0,5,0.00
2013-10-23,69.0,59.0,52.0,63.6,51.7,45.4,83,77,69,30.14,29.75,4,0,11,0.00
2013-10-24,63.0,52.1,45.0,57.4,46.2,38.5,82,80,78,30.34,30.14,1,0,9,0.00
2013-10-25,61.0,50.6,44.0,55.5,44.6,37.6,82,80,78,30.54,30.34,0,0,5,0.00
2013-10-26,63.0,49.3,41.0,57.4,43.1,34.0,82,79,76,30.55,30.20,2,0,7,0.00
2013-10-27,69.0,54.6,47.0,63.6,48.7,40.5,83,80,77,30.29,30.09,0,0,3,0.00
2013-10-28,69.0,56.1,48.0,63.6,49.6,41.0,83,79,70,30.38,30.24,0,0,0,0.00
2013-10-29,71.0,58.2,51.0,65.6,51.5,43.5,83,78,70,30.45,30.30,0,0,3,0.00
2013-10-30,69.0,59.8,53.0,63.6,52.7,45.4,83,77,70,30.42,30.21,2,0,5,0.00
2013-10-31,71.0,62.5,56.0,65.6,55.9,46.9,83,79,69,30.31,30.02,2,0,7,0.00
2013-11-1,69.0,64.9,62.0,63.3,57.5,52.1,82,77,68,30.02,29.77,3,0,9,1.03
2013-11-2,71.0,61.4,55.0,64.6,54.0,48.9,83,77,70,30.07,29.78,1,0,6,0.08
2013-11-3,66.0,53.8,47.0,60.7,47.8,40.8,83,80,78,30.53,30.07,1,0,9,0.04
2013-11-4,59.0,49.7,44.0,53.5,43.6,37.2,82,80,77,30.71,30.53,8,0,8,0.03
2013-11-5,59.0,52.1,45.0,53.5,46.1,38.5,82,80,78,30.70,30.55,0,0,3,0.00
2013-11-6,68.0,57.4,49.0,62.6,50.9,41.4,83,79,70,30.57,30.24,4,0,4,0.00
2013-11-7,67.0,60.4,52.0,61.6,53.2,46.3,83,77,69,30.25,29.99,1,0,6,0.10
2013-11-8,61.0,51.3,44.0,55.5,45.4,37.6,82,80,78,30.51,30.25,4,0,8,0.00
2013-11-9,62.0,50.2,43.0,56.4,44.0,36.3,82,79,76,30.57,30.34,3,0,7,0.00
2013-11-10,69.0,55.1,47.0,63.6,49.2,40.5,83,80,77,30.38,30.11,5,0,7,0.00
2013-11-11,61.0,49.8,41.0,55.5,43.8,34.7,82,80,77,30.54,30.31,0,0,4,0.00
2013-11-12,61.0,49.2,44.0,55.5,43.1,37.2,82,79,77,30.60,30.18,3,0,8,0.01
2013-11-13,52.0,44.4,40.0,46.3,38.4,33.7,81,79,78,30.71,30.59,3,0,8,0.00
2013-11-14,58.0,46.3,39.0,52.5,40.3,32.4,82,79,77,30.67,30.46,3,0,6,0.00
2013-11-15,62.0,50.4,41.0,56.4,44.5,34.7,82,80,78,30.54,30.32,0,0,3,0.00
2013-11-16,66.0,56.5,52.0,60.7,50.2,45.3,83,79,76,30.38,30.29,0,0,4,0.00
2013-11-17,68.0,60.6,55.0,62.6,52.9,45.4,83,76,68,30.36,29.99,2,0,6,0.09
2013-11-18,72.0,63.6,56.0,66.5,57.0,50.2,83,79,69,30.09,29.85,5,0,12,0.02
2013-11-19,58.0,52.5,47.0,52.5,46.7,41.1,82,81,80,30.48,30.09,3,0,6,0.00
2013-11-20,55.0,49.2,45.0,49.3,43.4,38.9,81,80,79,30.60,30.48,3,0,5,0.00
2013-11-21,60.0,52.8,48.0,54.5,46.9,41.8,82,80,79,30.65,30.49,0,0,4,0.00
2013-11-22,67.0,58.5,49.0,61.6,52.3,42.1,83,80,76,30.54,30.18,2,0,8,0.01
2013-11-23,61.0,57.1,48.0,55.5,50.9,42.1,82,80,75,30.33,30.14,0,0,4,0.01
2013-11-24,48.0,43.3,39.0,42.1,37.3,32.7,80,79,78,30.76,30.33,4,0,13,0.00
2013-11-25,48.0,41.7,35.0,42.1,35.6,28.5,80,79,77,30.80,30.55,3,0,5,0.00
2013-11-26,65.0,50.3,43.0,55.7,43.1,36.9,80,77,69,30.57,29.66,5,0,9,0.57
2013-11-27,60.0,45.7,39.0,50.9,37.9,32.7,79,74,71,30.35,29.64,2,0,7,0.77
2013-11-28,48.0,40.9,36.0,42.1,34.8,29.8,80,79,78,30.69,30.35,2,0,4,0.05
2013-11-29,50.0,41.1,36.0,44.1,34.8,29.5,80,78,76,30.83,30.65,1,0,4,0.21
2013-11-30,50.0,42.0,36.0,44.1,35.9,29.8,80,79,77,30.85,30.57,3,0,6,0.15
2013-12-1,58.0,43.8,38.0,51.2,36.9,30.4,78,76,74,30.57,30.20,0,0,9,0.06
2013-12-2,58.0,44.0,36.0,51.2,36.7,28.5,78,75,73,30.20,29.94,0,0,5,0.00
2013-12-3,58.0,44.6,31.0,48.3,35.9,24.0,83,72,53,30.21,30.06,4,0,4,1.86
2013-12-4,62.0,54.7,50.0,56.4,51.5,45.7,98,89,80,30.29,29.92,4,0,4,0.00
2013-12-5,67.0,60.5,52.0,64.3,59.4,51.5,100,97,88,30.10,30.00,5,0,6,0.04
2013-12-6,77.0,69.7,64.0,64.8,62.5,60.7,97,79,58,30.04,29.93,9,1,15,0.00
2013-12-7,70.0,49.0,42.0,64.6,43.9,32.2,96,83,68,30.41,29.95,6,1,8,0.20
2013-12-8,42.0,35.4,33.0,33.7,31.7,27.8,99,87,65,30.41,30.24,5,0,8,0.09
2013-12-9,45.0,39.3,34.0,45.0,39.3,33.7,100,100,99,30.23,30.02,2,0,3,0.18
2013-12-10,46.0,41.7,28.0,46.0,41.5,27.8,100,99,95,30.27,29.88,4,0,6,0.72
2013-12-11,47.0,33.2,24.0,32.5,27.3,23.0,100,82,39,30.40,30.23,4,0,5,0.00
2013-12-12,43.0,32.7,25.0,28.5,22.5,12.8,98,70,30,30.37,30.21,5,0,8,0.00
2013-12-13,49.0,33.6,22.0,29.1,22.2,17.0,91,68,30,30.34,30.23,5,0,8,0.00
2013-12-14,46.0,39.6,35.0,41.7,35.7,29.1,99,87,52,30.25,29.73,6,1,8,1.04
2013-12-15,52.0,41.6,32.0,45.1,37.1,29.4,100,86,50,30.02,29.66,4,0,7,0.04
2013-12-16,52.0,37.6,28.0,35.7,31.5,27.0,98,81,45,30.13,30.01,3,0,6,0.00
2013-12-17,59.0,44.5,30.0,42.1,34.4,29.8,100,72,40,30.08,29.83,5,0,12,0.00
2013-12-18,47.0,37.6,28.0,37.6,24.7,17.1,92,63,30,30.24,29.98,4,0,7,0.00
2013-12-19,60.0,41.8,27.0,31.7,25.5,21.7,89,58,25,30.28,30.18,6,0,11,0.00
2013-12-20,66.0,52.5,38.0,53.3,42.8,29.3,89,71,50,30.21,30.08,5,0,9,0.00
2013-12-21,72.0,59.1,45.0,65.6,54.3,43.7,96,85,65,30.12,30.01,6,1,12,0.00
2013-12-22,78.0,70.2,63.0,67.3,64.1,59.7,97,82,60,30.09,29.99,11,1,15,0.25
2013-12-23,66.0,60.0,46.0,66.0,59.3,44.6,100,98,94,30.11,29.96,5,0,9,1.97
2013-12-24,46.0,40.3,29.0,44.6,30.2,14.4,96,69,47,30.40,30.08,6,1,9,0.00
2013-12-25,37.0,28.7,24.0,19.4,14.3,10.4,80,56,34,30.50,30.34,6,0,7,0.00
2013-12-26,50.0,35.0,24.0,34.3,27.7,18.7,96,77,41,30.34,30.20,3,0,4,0.02
2013-12-27,50.0,35.1,26.0,29.5,25.0,20.4,95,71,31,30.42,30.31,3,0,4,0.00
2013-12-28,58.0,38.8,24.0,38.1,28.7,22.8,96,72,29,30.35,30.12,3,0,6,0.00
2013-12-29,63.0,48.6,42.0,62.7,47.0,35.9,100,95,73,30.13,29.64,7,1,9,1.88
2013-12-30,53.0,43.8,35.0,48.8,40.8,35.0,100,90,65,30.10,29.89,2,0,4,0.00
2013-12-31,50.0,41.0,31.0,39.1,31.5,22.0,96,72,33,30.30,30.07,4,0,11,0.00
2014-1-1,50.0,37.5,29.0,33.0,27.8,23.4,94,72,35,30.38,30.11,5,0,6,0.00
2014-1-2,48.0,42.3,36.0,45.5,39.0,32.0,98,88,72,30.11,29.53,3,0,5,0.33